Regional Weather Roundup
Issued by NWS

Home | Current Version | Previous Version | Graphics & Text | Print | Product List | Glossary On
Versions: 1 2 3 4 5 6 7 8 9 10 11 12 13 14 15 16 17 18 19 20 21 22 23 24 25 26 27 28 29 30 31 32 33 34 35 36 37 38 39 40 41 42 43 44 45 46 47 48 49 50
552
ASUS45 KBOI 240010
RWRID

IDAHO REGIONAL WEATHER ROUNDUP
NATIONAL WEATHER SERVICE BOISE ID
600 PM MDT MON MAY 23 2016

NOTE: "FAIR" INDICATES FEW OR NO CLOUDS BELOW 12000 FEET
WITH NO SIGNIFICANT WEATHER AND/OR OBSTRUCTIONS TO VISIBILITY

IDZ012-014-240100-
SOUTHWEST IDAHO


CITY           SKY/WX    TMP DP  RH WIND       PRES   REMARKS
BOISE          MOSUNNY   68  31  25 SW6       29.81F
CALDWELL       MOSUNNY   68  37  32 W6        29.82F
MOUNTAIN HOME  PTSUNNY   71  33  25 NW13      29.80F
$$

IDZ016-017-240100-
SOUTHCENTRAL IDAHO


CITY           SKY/WX    TMP DP  RH WIND       PRES   REMARKS
BURLEY         MOSUNNY   63  34  33 NW6       29.83F
JEROME         MOSUNNY   64  31  28 MISG      29.83F
TWIN FALLS     MOSUNNY   62  36  37 VRB5      29.84F
$$

IDZ019>023-240100-
SOUTHEAST IDAHO


CITY           SKY/WX    TMP DP  RH WIND       PRES   REMARKS
IDAHO FALLS    MOSUNNY   63  26  24 SW20      29.85F
POCATELLO      MOSUNNY   65  30  27 W14       29.86F
REXBURG        SUNNY     60  26  27 SW15G23   29.84F
$$

IDZ006-010-011-018-031-032-240100-
CENTRAL IDAHO MOUNTAINS


CITY           SKY/WX    TMP DP  RH WIND       PRES   REMARKS
MCCALL         CLOUDY    49  33  54 MISG      29.88S
HAILEY         MOSUNNY   59  28  31 S6        29.86F
STANLEY          N/A     51  28  41 N6        29.91S
SALMON         CLOUDY    57  30  35 NW12      29.81S
CHALLIS        CLOUDY    57  25  29 NW13      29.84F
$$

IDZ002-004-006-007-026-240100-
NORTHERN IDAHO


CITY           SKY/WX    TMP DP  RH WIND       PRES   REMARKS
LEWISTON       CLOUDY    61  43  51 E13       29.84S
LOWELL           N/A     57  51  80 N3        29.86S
COEUR D`ALENE  CLOUDY    52  48  87 S6        29.83F
MULLAN PASS    SNOW      34  34 100 VRB3      29.86R VSB 1/4
$$




USA.gov is the U.S. government's official web portal to all federal, state and local government web resources and services.